[[{"header":{"parameterUnit":"m.s-1","parameterCategory":1,"la1":30.2992,"la2":30.254,"lo1":-89.0895,"lo2":-89.0443,"dy":0.0025,"dx":0.0025,"nx":19,"ny":19,"refTime":"2026-03-07T09:00:00:Z","depth":0,"parameterNumber":2,"parameterNumberName":"U-component_of_WINDS"},"data":[0,0,0,-3.4438,-3.444,-3.4535,-3.4535,-3.4649,-3.465,0,0,0,0,0,0,0,0,0,0,0,-3.4406,-3.4407,-3.4438,-3.4441,-3.4535,-3.4535,-3.4648,-3.465,0,0,0,0,0,0,0,0,0,0,0,-3.4406,-3.4407,-3.4408,-3.4441,-3.4535,-3.4535,-3.4648,-3.4579,0,0,0,0,0,0,0,0,0,0,-3.4489,-3.4456,-3.4407,-3.4408,-3.4441,-3.4535,-3.4535,-3.4576,-3.4584,-3.4603,0,-3.4619,0,-3.4636,-3.4657,-3.4657,0,0,0,-3.4443,-3.4449,-3.4479,-3.4408,-3.4442,-3.4534,-3.4493,-3.458,-3.4589,-3.4613,-3.4621,-3.4625,-3.4638,-3.4657,-3.4658,-3.4762,-3.4762,0,0,-3.4438,-3.4421,-3.4473,-3.4484,-3.447,-3.449,-3.4496,-3.4586,-3.4593,-3.4622,-3.4628,-3.464,-3.4658,-3.4659,-3.4761,-3.4762,0,0,0,-3.4421,-3.4417,-3.4444,-3.4479,-3.4497,-3.4493,-3.4499,-3.4589,-3.46,-3.463,-3.4641,-3.4659,-3.466,-3.4761,-3.4761,-3.4762,0,0,0,-3.4418,-3.4407,-3.4442,-3.4433,-3.4495,-3.4544,-3.4501,-3.4593,-3.4604,-3.4641,-3.4659,-3.4661,-3.4761,-3.4761,-3.4761,-3.4764,0,0,0,-3.4402,-3.4406,-3.4418,-3.4431,-3.4472,-3.4543,-3.4559,-3.4596,-3.4611,-3.4657,-3.4661,-3.476,-3.4761,-3.476,-3.4763,-3.4785,0,0,0,-3.4379,-3.4417,-3.4418,-3.4465,-3.4471,-3.4544,-3.4558,-3.4614,-3.4653,-3.4659,-3.4761,-3.4761,-3.476,-3.4762,-3.4785,-3.48,-3.4805,0,0,-3.4417,-3.4421,-3.445,-3.4454,-3.4522,-3.4531,-3.46,-3.4651,-3.4671,-3.473,-3.4733,-3.4761,-3.4763,-3.4785,-3.4845,-3.4849,0,0,0,-3.4456,-3.4477,-3.4499,-3.4537,-3.4578,-3.4614,-3.4657,-3.4677,-3.4728,-3.4698,-3.4777,-3.4779,-3.4793,-3.48,-3.4804,-3.4816,-3.4765,-3.4765,-3.4765,-3.4484,-3.4509,-3.4559,-3.4595,-3.4631,-3.4677,-3.4708,-3.4742,-3.4756,-3.4774,-3.4791,-3.4824,-3.4833,-3.4836,-3.4849,-3.4803,-3.4803,-3.4803,-3.4803,-3.4541,-3.4573,-3.4593,-3.4647,-3.4673,-3.472,-3.4766,-3.4774,-3.482,-3.4814,-3.4827,-3.4815,-3.484,-3.4852,-3.4803,-3.4803,-3.4803,-3.4803,-3.4803,-3.456,-3.458,-3.4604,-3.4662,-3.4704,-3.474,-3.4784,-3.4806,-3.4827,-3.4841,-3.486,-3.486,-3.4861,-3.4849,-3.4849,-3.4849,-3.4849,-3.485,-3.485,-3.4569,-3.4597,-3.4631,-3.468,-3.4708,-3.4747,-3.4795,-3.4823,-3.4859,-3.4871,-3.4871,-3.4882,-3.4839,-3.4826,-3.4851,-3.4851,-3.4851,-3.4851,-3.4851,-3.4613,-3.4607,-3.466,-3.4688,-3.4748,-3.4788,-3.4817,-3.4872,-3.4898,-3.4919,-3.4928,-3.4893,-3.4898,-3.4895,-3.4885,-3.4924,-3.4924,-3.4924,-3.4924,-3.4627,-3.4633,-3.4693,-3.4735,-3.478,-3.4813,-3.4872,-3.4911,-3.4949,-3.4967,-3.4965,-3.4954,-3.4951,-3.4958,-3.4954,-3.4944,-3.4997,-3.4997,-3.4997,-3.4655,-3.4666,-3.4712,-3.4751,-3.48,-3.4841,-3.4897,-3.4946,-3.4989,-3.5001,-3.4981,-3.4978,-3.4961,-3.4954,-3.4962,-3.4955,-3.4938,0,0]},{"header":{"parameterUnit":"m.s-1","parameterCategory":1,"la1":30.2992,"la2":30.254,"lo1":-89.0895,"lo2":-89.0443,"dy":0.0025,"dx":0.0025,"nx":19,"ny":19,"refTime":"2026-03-07T09:00:00:Z","depth":0,"parameterNumber":3,"parameterNumberName":"V-component_of_WINDS"},"data":[0,0,0,3.2356,3.2357,3.2451,3.2451,3.2558,3.2559,0,0,0,0,0,0,0,0,0,0,0,3.2319,3.2319,3.2355,3.2358,3.2451,3.2451,3.2558,3.2559,0,0,0,0,0,0,0,0,0,0,0,3.2319,3.2319,3.232,3.2358,3.2451,3.2451,3.2557,3.2492,0,0,0,0,0,0,0,0,0,0,3.2403,3.236,3.2319,3.232,3.2358,3.245,3.2451,3.2489,3.2496,3.251,0,3.2519,0,3.254,3.2565,3.2565,0,0,0,3.2364,3.2354,3.2388,3.232,3.2359,3.245,3.2411,3.2493,3.2501,3.2519,3.2521,3.2525,3.2542,3.2565,3.2566,3.2626,3.2626,0,0,3.2359,3.2331,3.2382,3.2393,3.2377,3.2407,3.2413,3.2498,3.2498,3.2521,3.2528,3.2544,3.2566,3.2567,3.2626,3.2626,0,0,0,3.234,3.2327,3.2359,3.2388,3.2406,3.241,3.2417,3.2494,3.2507,3.2529,3.2545,3.2567,3.2568,3.2626,3.2626,3.2599,0,0,0,3.2337,3.2316,3.2356,3.234,3.2404,3.2451,3.2411,3.2501,3.2511,3.2545,3.2567,3.2569,3.2626,3.2626,3.26,3.259,0,0,0,3.2316,3.2313,3.2324,3.2338,3.2377,3.245,3.2468,3.2504,3.2521,3.2565,3.2569,3.2626,3.2626,3.26,3.2591,3.26,0,0,0,3.2285,3.2296,3.2323,3.2342,3.2376,3.2432,3.2468,3.2511,3.2545,3.2567,3.2626,3.2626,3.26,3.2592,3.26,3.2602,3.26,0,0,3.2283,3.2294,3.2308,3.2335,3.2379,3.242,3.2462,3.2519,3.2548,3.2599,3.2601,3.2599,3.2592,3.26,3.2597,3.2595,0,0,0,3.2298,3.2307,3.2325,3.2358,3.2403,3.2443,3.2497,3.252,3.2565,3.2568,3.2605,3.2601,3.2607,3.261,3.2608,3.2616,3.2625,3.2625,3.2625,3.2252,3.2292,3.2319,3.2371,3.2402,3.2461,3.2491,3.2531,3.2559,3.2568,3.2583,3.2576,3.2578,3.2577,3.2585,3.2586,3.2586,3.2586,3.2586,3.2254,3.2275,3.2317,3.2357,3.24,3.2435,3.2494,3.2514,3.2554,3.2567,3.2574,3.2585,3.2573,3.2583,3.2585,3.2585,3.2585,3.2585,3.2585,3.2229,3.2247,3.2275,3.233,3.2368,3.2421,3.2459,3.2496,3.2531,3.2538,3.256,3.2561,3.2568,3.2546,3.2546,3.2546,3.2546,3.2546,3.2546,3.2192,3.2226,3.2253,3.2307,3.2335,3.2377,3.244,3.247,3.2512,3.2536,3.2537,3.2566,3.2564,3.2564,3.2546,3.2546,3.2546,3.2546,3.2546,3.218,3.219,3.2232,3.2261,3.2329,3.2367,3.2415,3.2473,3.2503,3.2522,3.2551,3.2543,3.2557,3.2559,3.2559,3.2541,3.2541,3.2541,3.2541,3.216,3.2172,3.2226,3.227,3.2318,3.2368,3.2418,3.2469,3.2523,3.2545,3.2553,3.2556,3.2556,3.2571,3.2572,3.2573,3.2558,3.2558,3.2558,3.2156,3.2175,3.2208,3.2263,3.2321,3.237,3.2419,3.2471,3.2534,3.256,3.2564,3.2563,3.2568,3.2568,3.2592,3.2593,3.2595,0,0]}]]